Weather History for Columbia Airport, CA

Change the Weather History Date:

Thursday, April 3, 2014

  Actual Average (KMOD) Record (KMOD)
Temperature  
Mean Temperature 46 °F -  
Max Temperature 59 °F 72 °F 89 °F (1959)
Min Temperature 32 °F 47 °F 35 °F (1955)
Degree Days  
Heating Degree Days 20 6  
Month to date heating degree days 18  
Since 1 July heating degree days 2023  
Cooling Degree Days 0 0  
Month to date cooling degree days 0  
Year to date cooling degree days 5  
Moisture  
Dew Point 39 °F    
Average Humidity 82    
Maximum Humidity 100    
Minimum Humidity 55    
Precipitation  
Precipitation 0.00 in 0.04 in 0.79 in (1942)
Month to date precipitation 0.12  
Year to date precipitation 7.15  
Since 1 July precipitation 11.51  
Snow  
Snow 0.00 in - - ()
Month to date snowfall  
Since 1 July snowfall  
Snow Depth -    
Sea Level Pressure  
Sea Level Pressure 30.07 in    
Wind  
Wind Speed 2 mph (South)    
Max Wind Speed 8 mph    
Max Gust Speed -    
Visibility 10 miles    
Events      
T = Trace of Precipitation, MM = Missing Value Source: NWS Daily Summary

Daily Weather History Graph

Daily Weather History Graph

Search for Another Location

Airport:

Trip Planner

Search our weather history database for the weather conditions in past years. The results will help you decide how hot, cold, wet, or windy it might be!

Date:

Astronomy

Apr. 03, 2014 Rise Set
Actual Time 6:43 AM PDT 7:26 PM PDT
Civil Twilight 6:17 AM PDT 7:53 PM PDT
Nautical Twilight 5:45 AM PDT 8:24 PM PDT
Astronomical Twilight 5:13 AM PDT 8:57 PM PDT
Moon 9:19 AM PDT (4/3) 11:47 PM PDT (4/3)
Length of Visible Light 13h 36m
Length of Day
12h 43m
Waxing Crescent, 18% of the Moon is Illuminated
Apr 3
Waxing Crescent
Apr 7
First Quarter
Apr 15
Full
Apr 22
Last Quarter
Apr 28
New

Hourly Weather History & Observations

Time (PDT) Temp. Windchill Dew Point Humidity Pressure Visibility Wind Dir Wind Speed Gust Speed Precip Events Conditions
12:15 AM 35.6 °F - 35.6 °F 100% 30.07 in 10.0 mi Calm Calm - N/A   Clear
12:35 AM 35.6 °F - 35.6 °F 100% 30.08 in 10.0 mi Calm Calm - N/A   Clear
12:55 AM 35.6 °F - 35.6 °F 100% 30.08 in 10.0 mi Calm Calm - N/A   Clear
1:15 AM 35.6 °F - 35.6 °F 100% 30.08 in 10.0 mi Calm Calm - N/A   Clear
1:35 AM 33.8 °F - 33.8 °F 100% 30.07 in 10.0 mi Calm Calm - N/A   Clear
1:55 AM 35.6 °F - 35.6 °F 100% 30.07 in 10.0 mi Calm Calm - N/A   Clear
2:15 AM 35.6 °F - 35.6 °F 100% 30.07 in 10.0 mi Calm Calm - N/A   Clear
2:35 AM 33.8 °F - 33.8 °F 100% 30.07 in 10.0 mi Calm Calm - N/A   Clear
2:55 AM 33.8 °F - 33.8 °F 100% 30.07 in 10.0 mi Calm Calm - N/A   Clear
3:15 AM 33.8 °F - 33.8 °F 100% 30.07 in 10.0 mi Calm Calm - N/A   Clear
3:35 AM 32.0 °F - 32.0 °F 100% 30.07 in 10.0 mi Calm Calm - N/A   Clear
3:55 AM 33.8 °F - 33.8 °F 100% 30.07 in 10.0 mi Calm Calm - N/A   Clear
4:15 AM 33.8 °F - 33.8 °F 100% 30.08 in 10.0 mi Calm Calm - N/A   Clear
4:35 AM 33.8 °F - 33.8 °F 100% 30.08 in 10.0 mi Calm Calm - N/A   Clear
4:55 AM 33.8 °F - 33.8 °F 100% 30.07 in 10.0 mi Calm Calm - N/A   Clear
5:15 AM 33.8 °F - 33.8 °F 100% 30.08 in 10.0 mi Calm Calm - N/A   Clear
5:35 AM 33.8 °F - 33.8 °F 100% 30.08 in 10.0 mi Calm Calm - N/A   Clear
5:55 AM 33.8 °F - 33.8 °F 100% 30.09 in 10.0 mi Calm Calm - N/A   Clear
6:15 AM 33.8 °F - 33.8 °F 100% 30.09 in 10.0 mi Calm Calm - N/A   Clear
6:35 AM 35.6 °F - 35.6 °F 100% 30.10 in 10.0 mi Calm Calm - N/A   Clear
6:55 AM 35.6 °F - 35.6 °F 100% 30.09 in 10.0 mi Calm Calm - N/A   Clear
7:15 AM 37.4 °F - 37.4 °F 100% 30.10 in 10.0 mi Calm Calm - N/A   Clear
7:35 AM 39.2 °F - 39.2 °F 100% 30.10 in 10.0 mi Calm Calm - N/A   Mostly Cloudy
7:55 AM 41.0 °F - 41.0 °F 100% 30.10 in 10.0 mi Calm Calm - N/A   Overcast
8:15 AM 42.8 °F - 42.8 °F 100% 30.10 in 10.0 mi Calm Calm - N/A   Overcast
8:35 AM 44.6 °F - 42.8 °F 93% 30.10 in 10.0 mi Calm Calm - N/A   Overcast
8:55 AM 48.2 °F - 41.0 °F 76% 30.10 in 10.0 mi SE 4.6 mph - N/A   Overcast
9:15 AM 48.2 °F - 39.2 °F 71% 30.10 in 10.0 mi SE 3.5 mph - N/A   Overcast
9:35 AM 48.2 °F - 39.2 °F 71% 30.10 in 10.0 mi SE 4.6 mph - N/A   Overcast
9:55 AM 50.0 °F - 39.2 °F 66% 30.11 in 10.0 mi South 4.6 mph - N/A   Overcast
10:15 AM 50.0 °F - 39.2 °F 66% 30.11 in 10.0 mi South 5.8 mph - N/A   Overcast
10:35 AM 53.6 °F - 41.0 °F 62% 30.11 in 10.0 mi SSE 4.6 mph - N/A   Mostly Cloudy
10:55 AM 53.6 °F - 41.0 °F 62% 30.11 in 10.0 mi South 6.9 mph - N/A   Partly Cloudy
11:15 AM 55.4 °F - 41.0 °F 58% 30.11 in 10.0 mi South 5.8 mph - N/A   Scattered Clouds
11:35 AM 51.8 °F - 41.0 °F 67% 30.11 in 10.0 mi South 5.8 mph - N/A   Overcast
11:55 AM 53.6 °F - 42.8 °F 67% 30.10 in 10.0 mi South 5.8 mph - N/A   Overcast
12:15 PM 53.6 °F - 42.8 °F 67% 30.10 in 10.0 mi SSW 6.9 mph - N/A   Overcast
12:35 PM 53.6 °F - 42.8 °F 67% 30.10 in 10.0 mi SSE 4.6 mph - N/A   Mostly Cloudy
12:55 PM 53.6 °F - 42.8 °F 67% 30.10 in 10.0 mi South 3.5 mph - N/A   Overcast
1:15 PM 55.4 °F - 44.6 °F 67% 30.09 in 10.0 mi WSW 4.6 mph - N/A   Mostly Cloudy
1:55 PM 55.4 °F - 42.8 °F 63% 30.08 in 10.0 mi Calm Calm - N/A   Mostly Cloudy
2:15 PM 57.2 °F - 44.6 °F 63% 30.07 in 10.0 mi SSE 6.9 mph - N/A   Mostly Cloudy
2:35 PM 59.0 °F - 42.8 °F 55% 30.06 in 10.0 mi SSW 8.1 mph - N/A   Scattered Clouds
2:55 PM 57.2 °F - 42.8 °F 59% 30.06 in 10.0 mi SW 6.9 mph - N/A   Scattered Clouds
3:15 PM 59.0 °F - 44.6 °F 59% 30.05 in 10.0 mi WSW 6.9 mph - N/A   Scattered Clouds
3:35 PM 57.2 °F - 42.8 °F 59% 30.05 in 10.0 mi South 5.8 mph - N/A   Scattered Clouds
3:55 PM 57.2 °F - 42.8 °F 59% 30.04 in 10.0 mi SW 6.9 mph - N/A   Scattered Clouds
4:15 PM 57.2 °F - 41.0 °F 55% 30.04 in 10.0 mi South 8.1 mph - N/A   Scattered Clouds
4:35 PM 57.2 °F - 41.0 °F 55% 30.03 in 10.0 mi South 8.1 mph - N/A   Mostly Cloudy
4:55 PM 57.2 °F - 42.8 °F 59% 30.03 in 10.0 mi SSW 5.8 mph - N/A   Mostly Cloudy
5:15 PM 57.2 °F - 41.0 °F 55% 30.03 in 10.0 mi South 5.8 mph - N/A   Scattered Clouds
5:35 PM 57.2 °F - 41.0 °F 55% 30.02 in 10.0 mi South 5.8 mph - N/A   Scattered Clouds
5:55 PM 55.4 °F - 41.0 °F 58% 30.02 in 10.0 mi South 3.5 mph - N/A   Scattered Clouds
6:15 PM 55.4 °F - 41.0 °F 58% 30.02 in 10.0 mi SSW 4.6 mph - N/A   Mostly Cloudy
6:35 PM 53.6 °F - 41.0 °F 62% 30.02 in 10.0 mi Calm Calm - N/A   Mostly Cloudy
6:55 PM 51.8 °F - 41.0 °F 67% 30.02 in 10.0 mi Calm Calm - N/A   Partly Cloudy
7:15 PM 50.0 °F - 41.0 °F 71% 30.02 in 10.0 mi Calm Calm - N/A   Scattered Clouds
8:35 PM 44.6 °F 43.1 °F 41.0 °F 87% 30.03 in 10.0 mi NE 3.5 mph - N/A   Scattered Clouds
8:55 PM 44.6 °F - 41.0 °F 87% 30.03 in 10.0 mi Calm Calm - N/A   Mostly Cloudy
9:15 PM 42.8 °F - 39.2 °F 87% 30.03 in 10.0 mi Calm Calm - N/A   Overcast
9:35 PM 41.0 °F - 39.2 °F 93% 30.03 in 10.0 mi Calm Calm - N/A   Mostly Cloudy
9:55 PM 41.0 °F - 39.2 °F 93% 30.03 in 10.0 mi Calm Calm - N/A   Mostly Cloudy
10:15 PM 41.0 °F - 39.2 °F 93% 30.03 in 10.0 mi Calm Calm - N/A   Mostly Cloudy
10:35 PM 41.0 °F - 39.2 °F 93% 30.03 in 10.0 mi Calm Calm - N/A   Mostly Cloudy
10:55 PM 39.2 °F - 39.2 °F 100% 30.03 in 10.0 mi Calm Calm - N/A   Mostly Cloudy
11:15 PM 41.0 °F - 39.2 °F 93% 30.03 in 10.0 mi Calm Calm - N/A   Scattered Clouds
11:35 PM 41.0 °F 39.0 °F 39.2 °F 93% 30.03 in 10.0 mi ENE 3.5 mph - N/A   Mostly Cloudy
11:55 PM 41.0 °F - 39.2 °F 93% 30.03 in 10.0 mi Calm Calm - N/A   Mostly Cloudy